Weather in Navashino

Russia / Nizhny Novgorod Oblast'     55°32′37″N   42°11′19″E
temp.,
°C
wind,
m/s
gust,
m/s
humid.,
%
clouds,
%
prec.,
mm/h
press.,
hPa
HPBL,
m
14 april, wed
wed1400:00+11sse3116173 0.0 1026221
03:00+9sse397260 0.0 1025147
06:00+8sse397661 0.0 1025173
09:00+15s475089 0.0 1024370
12:00+19sse463458 0.0 10231150
15:00+20s5728100 0.0 10211633
18:00+16sse2545100 0.0 102086
21:00+12sse3560100 0.0 102190
15 april, thu
thu1500:00+10sse236768 0.0 102036
03:00+8sse22765 0.0 101918
06:00+7se227863 0.0 101915
09:00+14se235175 0.0 1019336
12:00+19ese2237100 0.0 10181186
15:00+20ene1131100 0.0 10172122
18:00+17ene2448100 0.0 101785
21:00+12ne4868100 0.0 1019190
16 april, fri
fri1600:00+10ne51187100 0.0 1020356
03:00+7ne51191100 0.0 1021409
06:00+6ne5118872 0.0 1022476
09:00+9ene587591 0.0 1023637
12:00+11ene686676 0.0 1024884
15:00+12ene6865100 0.0 10241023
18:00+11ene4972100 0.0 1024920
21:00+9ene4117476 0.0 1025689
17 april, sat
sat1700:00+7ene4117371 0.0 1026419
03:00+5ne4117015 0.0 1027392
06:00+4ene4136910 0.0 1028444
09:00+9ene69475 0.0 1028737
12:00+12ene68325 0.0 10281214
15:00+13ene67305 0.0 10271501
18:00+11ene48416 0.0 1028900
21:00+6ene39620 0.0 1029178
18 april, sun
sun1800:00+4ene310703 0.0 1029204
03:00+3ene37768 0.0 1030130
06:00+3ene27780 0.0 1031145
09:00+9ene36541 0.0 1030623
12:00+12ene5642100 0.0 10301554
15:00+12ene5640100 0.0 10301595
18:00+11ne375182 0.0 1030454
21:00+7ene226881 0.0 103141